Norfolk, NE

11:36 PM CST on December 07, 2019 (GMT -0600)
Stefan Memorial

Weather History for KOFK - October, 2019

Change the Weather History Date:

Tuesday, October 1, 2019

  Actual Average Record
Temperature  
Mean Temperature 52 °F 57 °F  
Max Temperature 55 °F 70 °F 95 °F (1963)
Min Temperature 48 °F 44 °F 24 °F (1985)
Degree Days  
Heating Degree Days 14 9  
Month to date heating degree days 9  
Since 1 July heating degree days 151  
Cooling Degree Days 0 1  
Month to date cooling degree days 1  
Year to date cooling degree days 907  
Growing Degree Days 2 (Base 50)    
Moisture  
Dew Point 51 °F    
Average Humidity 92    
Maximum Humidity 97    
Minimum Humidity 87    
Precipitation  
Precipitation 0.87 in 0.09 in 0.87 in (2019)
Month to date precipitation 0.09  
Year to date precipitation 23.31  
Snow  
Snow 0.00 in 0.00 in - ()
Since 1 July snowfall T  
Snow Depth -    
Sea Level Pressure  
Sea Level Pressure 29.92 in    
Wind  
Wind Speed 12 mph (North)    
Max Wind Speed 21 mph    
Max Gust Speed 29 mph    
Visibility 6 miles    
Events Rain , Thunderstorm    
T = Trace of Precipitation, MM = Missing Value Source: NWS Daily Summary

Daily Weather History Graph

Daily Weather History Graph

Search for Another Location

Airport or City:

Astronomy

Oct. 01, 2019 Rise Set
Actual Time 7:26 AM CDT 7:11 PM CDT
Civil Twilight 6:58 AM CDT 7:39 PM CDT
Nautical Twilight 6:26 AM CDT 8:11 PM CDT
Astronomical Twilight 5:53 AM CDT 8:44 PM CDT
Moon 10:46 AM CDT (10/1) 9:22 PM CDT (10/1)
Length of Visible Light 12h 40m
Length of Day
11h 45m
Waxing Crescent, 12% of the Moon is Illuminated
Oct 1
Waxing Crescent
Oct 5
First Quarter
Oct 13
Full
Oct 21
Last Quarter
Oct 27
New

Hourly Weather History & Observations

Time (CDT) Temp. Dew Point Humidity Pressure Visibility Wind Dir Wind Speed Gust Speed Precip Events Conditions
12:03 AM 60.1 °F 57.0 °F 90% 29.89 in 10.0 mi North 13.8 mph - 0.00 in Rain Light Rain
12:13 AM 60.1 °F 57.0 °F 90% 29.91 in 10.0 mi North 13.8 mph - 0.00 in Rain , Thunderstorm Light Rain
12:40 AM 60.1 °F 57.0 °F 90% 29.88 in 10.0 mi NE 13.8 mph 20.7 mph 0.01 in   Overcast
12:56 AM 60.1 °F 57.0 °F 90% 29.84 in 10.0 mi ENE 9.2 mph - 0.01 in   Overcast
1:41 AM 60.1 °F 57.0 °F 90% 29.88 in 10.0 mi North 8.1 mph - 0.01 in   Overcast
1:56 AM 60.1 °F 57.0 °F 90% 29.86 in 10.0 mi NW 11.5 mph - 0.01 in   Overcast
2:51 AM 57.2 °F 55.4 °F 94% 29.89 in 10.0 mi NNE 12.7 mph - 0.04 in Rain Light Rain
2:56 AM 57.9 °F 55.0 °F 90% 29.86 in 10.0 mi North 11.5 mph - 0.04 in Rain Light Rain
3:21 AM 57.0 °F 55.0 °F 93% 29.90 in 8.0 mi North 10.4 mph - 0.00 in Rain Light Rain
3:42 AM 57.0 °F 55.0 °F 93% 29.90 in 10.0 mi NNE 10.4 mph - 0.04 in Rain Light Rain
3:56 AM 57.0 °F 55.0 °F 93% 29.88 in 8.0 mi NNW 10.4 mph - 0.04 in Rain Light Rain
4:05 AM 57.0 °F 55.0 °F 93% 29.91 in 6.0 mi NNW 10.4 mph - 0.01 in Rain Light Rain
4:56 AM 57.0 °F 54.0 °F 89% 29.89 in 10.0 mi North 10.4 mph 19.6 mph 0.03 in   Overcast
5:56 AM 55.9 °F 53.1 °F 90% 29.89 in 6.0 mi NNE 12.7 mph - 0.00 in   Overcast
6:09 AM 55.9 °F 54.0 °F 93% 29.91 in 6.0 mi North 9.2 mph - N/A   Overcast
6:56 AM 55.0 °F 53.1 °F 93% 29.93 in 3.0 mi North 10.4 mph - 0.01 in Rain Light Rain
7:17 AM 54.0 °F 52.0 °F 93% 29.91 in 2.5 mi North 20.7 mph 25.3 mph 0.04 in Rain Heavy Rain
7:27 AM 54.0 °F 52.0 °F 93% 29.90 in 6.0 mi North 18.4 mph 28.8 mph 0.07 in Rain Light Rain
7:56 AM 54.0 °F 52.0 °F 93% 29.95 in 10.0 mi NE 12.7 mph - 0.08 in   Overcast
8:56 AM 53.1 °F 51.1 °F 93% 29.94 in 10.0 mi North 9.2 mph 19.6 mph N/A   Overcast
9:52 AM 53.6 °F 51.8 °F 94% 29.94 in 5.0 mi NNE 13.8 mph - 0.00 in Rain Light Rain
9:56 AM 53.1 °F 51.1 °F 93% 29.94 in 7.0 mi NNE 15.0 mph - 0.00 in   Overcast
10:56 AM 54.0 °F 51.1 °F 90% 29.94 in 10.0 mi NNE 11.5 mph - 0.00 in   Overcast
11:56 AM 53.1 °F 51.1 °F 93% 29.96 in 2.0 mi NNE 6.9 mph - 0.02 in Rain Rain
12:19 PM 53.1 °F 51.1 °F 93% 29.96 in 3.0 mi NNE 10.4 mph - 0.02 in Rain , Thunderstorm Light Rain
12:40 PM 53.1 °F 51.1 °F 93% 29.96 in 9.0 mi North 11.5 mph - 0.02 in   Overcast
12:56 PM 53.1 °F 51.1 °F 93% 29.95 in 7.0 mi North 10.4 mph - 0.03 in Rain Light Rain
1:56 PM 53.1 °F 50.0 °F 89% 29.91 in 10.0 mi North 15.0 mph - 0.00 in Rain Light Rain
2:25 PM 52.0 °F 48.9 °F 89% 29.91 in 5.0 mi North 11.5 mph - 0.03 in Rain Rain
2:56 PM 52.0 °F 50.0 °F 93% 29.92 in 2.0 mi North 12.7 mph - 0.11 in Rain Heavy Rain
3:08 PM 51.1 °F 48.9 °F 92% 29.91 in 3.0 mi NNE 13.8 mph - 0.06 in Rain Light Rain
3:17 PM 51.1 °F 48.9 °F 92% 29.91 in 2.0 mi North 13.8 mph 24.2 mph 0.09 in Rain Rain
3:28 PM 51.1 °F 48.9 °F 92% 29.91 in 2.5 mi NNE 16.1 mph - 0.10 in Rain Rain
3:43 PM 51.1 °F 48.9 °F 92% 29.92 in 3.0 mi North 11.5 mph - 0.11 in Rain Light Rain
3:53 PM 51.8 °F 48.2 °F 88% 29.92 in 2.5 mi North 12.7 mph 20.7 mph 0.11 in Rain Light Rain
3:56 PM 51.1 °F 48.9 °F 92% 29.92 in 1.5 mi North 13.8 mph - 0.11 in Rain Heavy Rain
4:07 PM 51.1 °F 48.9 °F 92% 29.92 in 3.0 mi North 15.0 mph - 0.06 in Rain Light Rain
4:29 PM 51.1 °F 48.0 °F 89% 29.91 in 3.0 mi NNE 11.5 mph - 0.09 in Rain Heavy Rain
4:38 PM 51.1 °F 48.9 °F 92% 29.92 in 5.0 mi North 10.4 mph - 0.11 in Rain Light Rain
4:47 PM 51.1 °F 48.9 °F 92% 29.92 in 2.5 mi North 10.4 mph - 0.13 in Rain Rain
4:50 PM 51.8 °F 48.2 °F 88% 29.92 in 3.0 mi North 11.5 mph - 0.13 in Rain Heavy Rain
4:56 PM 51.1 °F 48.9 °F 92% 29.92 in 3.0 mi North 12.7 mph - 0.15 in Rain Rain
5:10 PM 51.1 °F 48.9 °F 92% 29.92 in 4.0 mi North 12.7 mph - 0.03 in Rain Rain
5:19 PM 51.1 °F 48.9 °F 92% 29.92 in 1.8 mi NNE 11.5 mph - 0.05 in Rain Heavy Rain
5:45 PM 50.0 °F 48.2 °F 94% 29.93 in 2.0 mi North 11.5 mph - N/A Rain Heavy Rain
5:56 PM 50.0 °F 48.0 °F 93% 29.94 in 3.0 mi North 11.5 mph - 0.40 in Rain Rain
6:05 PM 50.0 °F 48.9 °F 96% 29.93 in 5.0 mi NNW 9.2 mph - 0.02 in Rain Rain
6:08 PM 50.0 °F 48.9 °F 96% 29.94 in 5.0 mi NNW 9.2 mph - 0.03 in Rain Rain
6:25 PM 50.0 °F 48.0 °F 93% 29.94 in 5.0 mi North 12.7 mph - 0.05 in Rain Rain
6:48 PM 48.9 °F 46.9 °F 93% 29.93 in 9.0 mi North 11.5 mph - 0.08 in Rain Light Rain
6:56 PM 48.9 °F 46.9 °F 93% 29.94 in 10.0 mi North 11.5 mph - 0.08 in Rain Light Rain
7:56 PM 48.9 °F 46.9 °F 93% 29.94 in 10.0 mi North 15.0 mph - 0.01 in Rain Light Rain
8:56 PM 48.9 °F 46.9 °F 93% 29.96 in 10.0 mi North 13.8 mph - 0.01 in   Overcast
9:56 PM 48.9 °F 48.0 °F 97% 29.99 in 3.0 mi North 12.7 mph - N/A   Overcast
10:56 PM 50.0 °F 48.0 °F 93% 30.01 in 10.0 mi North 13.8 mph - N/A   Overcast
11:56 PM 50.0 °F 48.0 °F 93% 30.01 in 8.0 mi North 12.7 mph - N/A   Overcast